Temp
78 81 82 72 60 58 55 58 74 72 70 76 76 70 65 67 65 56 70 73 73 71 72 76 78 78 78 78 79 79 79 78 78 78 78 78 78 78 78 79 79 79 79 79 79 80 79 79 79
83 87 75 64 54 51 55 64 68 73 77 78 75 72 68 62 70 68 69 73 73 72 72 74 79 79 79 79 78 78 78 78 78 78 78 78 78 78 78 78 79 79 79 79 78 78 78 78 78
86 84 68 61 56 53 58 71 71 77 82 78 73 75 70 65 71 69 71 73 73 72 73 76 79 79 79 79 78 78 78 78 78 78 78 78 77 77 77 77 77 78 78 79 78 77 77 77 77
81 71 69 60 57 63 68 71 76 76 79 78 73 65 71 75 74 73 74 75 75 76 77 78 78 78 78 78 78 78 78 78 77 77 77 77 77 77 77 77 77 77 77 77 76 76 77 77 77
75 67 56 56 59 71 75 78 76 74 76 74 74 63 65 72 75 74 74 78 75 73 73 75 78 78 78 78 77 77 77 76 77 76 76 76 76 76 76 76 76 76 76 76 76 75 75 75 76
63 65 53 52 59 74 75 77 79 74 73 71 68 67 65 73 74 74 78 77 77 74 73 74 78 78 77 77 77 76 76 75 75 75 75 75 75 76 76 75 74 74 74 74 74 74 75 75 75
65 61 55 63 70 69 73 78 77 76 74 72 76 63 65 70 76 79 79 79 77 76 74 72 73 75 77 77 76 76 76 75 74 74 74 75 75 76 75 74 74 75 74 74 74 74 74 74 75
72 65 61 64 67 66 74 79 83 78 72 80 77 62 60 70 77 79 79 78 74 73 73 70 69 70 70 70 77 76 76 75 74 74 75 76 76 76 76 74 75 75 75 74 74 74 74 74 75
82 65 59 63 68 72 79 74 76 79 73 74 77 72 74 76 78 74 72 71 70 75 71 71 71 70 69 70 73 76 76 76 75 74 74 71 66 67 71 75 76 76 75 75 75 75 75 75 75
72 58 65 75 77 73 78 77 77 70 69 68 70 75 77 76 72 68 67 66 68 72 72 73 74 73 71 78 70 66 70 67 66 67 67 65 65 67 73 72 77 77 76 77 77 76 76 75 66
73 63 73 80 84 84 78 78 80 68 65 67 66 70 72 70 68 68 70 68 68 69 70 70 70 71 68 68 66 66 66 65 65 67 65 64 65 63 64 63 64 63 72 66 68 67 67 66 65
66 72 75 83 84 81 77 77 72 72 71 74 72 73 70 66 65 64 66 64 68 68 70 71 70 67 66 66 65 65 66 65 64 63 64 63 61 61 62 62 63 63 63 63 63 63 64 66 67
71 72 81 84 81 81 82 74 71 69 72 75 75 73 65 64 61 63 64 66 63 65 64 68 71 66 65 65 64 64 64 64 66 64 64 62 60 60 61 61 62 61 61 61 62 62 62 64 65
72 75 74 77 81 81 74 70 72 70 72 71 70 69 67 63 63 61 63 59 60 64 65 66 67 67 66 63 64 64 63 64 63 62 63 65 62 59 60 60 61 62 60 61 61 61 62 62 62
70 68 69 72 73 70 77 68 65 70 70 68 68 67 65 62 62 60 61 60 62 64 65 65 66 67 66 64 64 64 64 66 64 66 66 65 63 62 60 59 58 62 61 61 60 61 64 60 63
63 60 55 66 72 72 71 57 68 69 68 65 66 66 63 61 61 64 64 62 63 64 63 66 73 67 66 64 64 65 64 64 64 63 64 66 66 63 61 64 58 62 62 59 63 63 58 58 57
59 51 56 59 71 69 66 58 70 70 69 65 65 65 63 62 63 64 65 65 64 64 63 65 67 70 66 67 68 66 64 63 63 63 66 68 69 66 61 60 60 59 60 58 63 58 56 56 57
59 58 58 56 69 68 65 62 67 68 70 67 65 65 64 63 63 65 66 68 66 65 64 65 65 65 63 64 66 64 66 62 62 62 67 66 63 65 61 64 60 60 62 57 58 56 56 56 56
75 65 59 60 73 68 65 62 64 64 66 66 65 65 63 65 68 67 68 68 67 66 63 64 63 61 60 62 61 60 61 63 62 63 65 64 64 64 62 60 64 59 57 57 57 56 56 55 56
71 65 65 67 72 65 66 61 59 61 63 67 66 64 65 67 68 67 67 67 66 65 64 64 62 61 62 62 61 61 66 65 64 61 62 63 64 63 63 59 60 59 57 57 56 56 54 54 55
67 67 66 66 71 70 64 54 55 61 61 68 72 70 69 69 66 68 68 65 65 65 64 63 62 63 63 62 61 61 62 63 61 60 61 62 64 64 62 61 58 59 59 55 55 56 55 52 54
64 76 76 73 65 55 67 46 50 56 58 67 71 66 68 67 70 64 64 63 64 64 64 62 62 60 61 61 60 59 61 58 60 60 60 60 63 63 63 61 60 58 56 57 55 58 56 54 52
69 74 72 72 66 59 56 47 50 55 55 61 65 71 69 65 65 64 64 64 64 64 63 62 60 59 59 60 57 58 57 56 58 58 58 57 59 60 62 60 60 58 56 56 56 56 55 54 53
81 68 67 67 60 48 52 51 44 50 58 63 66 68 67 66 66 66 67 66 64 64 62 61 59 59 60 58 58 57 58 58 56 56 56 55 56 57 59 61 59 58 56 56 56 56 56 54 54
73 57 48 46 46 45 57 48 48 58 63 61 65 64 65 65 63 63 63 64 64 63 64 59 57 59 59 57 58 56 59 59 57 57 56 56 55 55 56 58 57 57 57 57 56 56 55 55 54
67 58 48 40 43 47 58 44 47 59 63 65 67 65 65 64 63 63 62 63 63 64 62 62 60 59 58 57 59 58 57 57 58 58 57 55 55 56 58 58 57 58 61 58 58 56 55 55 54
66 57 63 52 54 46 45 50 57 62 62 66 65 64 62 63 63 62 61 63 63 62 60 61 60 59 59 58 57 56 56 56 57 57 57 55 56 59 59 59 58 59 61 59 57 55 54 55 55
71 70 53 51 41 39 47 46 43 54 58 66 64 62 60 61 62 61 61 61 61 60 61 60 60 59 58 58 58 58 56 56 55 57 57 56 55 56 56 57 59 58 61 59 56 55 55 55 54
63 58 57 54 51 42 39 41 56 57 62 58 58 60 59 60 60 61 61 62 61 61 60 59 59 59 57 57 56 57 56 57 55 54 56 56 56 55 56 57 58 59 58 61 57 55 57 59 57
67 60 57 47 46 48 46 42 61 61 61 59 59 60 58 58 60 61 61 61 60 59 60 59 58 58 57 57 56 56 56 56 54 55 55 54 55 55 56 57 58 59 58 58 58 57 61 58 58
MSLP
1012.80 1012.66 1013.08 1014.19 1015.89 1016.19 1015.55 1013.42 1011.81 1011.43 1011.60 1012.50 1012.78 1013.77 1015.73 1016.43 1017.16 1019.18 1020.12 1020.06 1020.13 1020.42 1020.39 1020.15 1020.00 1019.84 1019.80 1019.88 1020.11 1020.26 1020.16 1020.19 1020.31 1020.39 1020.42 1020.38 1020.27 1020.11 1019.98 1019.88 1019.77 1019.68 1019.61 1019.58 1019.40 1019.18 1019.16 1019.05 1019.04
1011.86 1012.28 1013.83 1015.85 1016.74 1016.33 1015.41 1013.37 1011.77 1011.51 1011.95 1012.46 1013.52 1014.58 1015.72 1017.39 1017.95 1019.28 1019.96 1020.28 1020.11 1020.32 1020.41 1020.18 1020.08 1020.00 1020.14 1020.30 1020.31 1020.40 1020.38 1020.39 1020.44 1020.42 1020.59 1020.66 1020.60 1020.57 1020.43 1020.21 1020.13 1019.97 1019.80 1019.66 1019.64 1019.61 1019.43 1019.28 1019.26
1011.66 1012.18 1014.15 1015.69 1016.27 1015.74 1014.16 1012.74 1011.76 1011.52 1011.71 1012.35 1013.72 1014.82 1016.19 1017.73 1018.56 1019.27 1019.94 1020.13 1020.20 1020.41 1020.38 1020.25 1020.27 1020.32 1020.35 1020.53 1020.53 1020.54 1020.63 1020.68 1020.74 1020.79 1020.87 1020.84 1020.85 1020.81 1020.79 1020.76 1020.54 1020.42 1020.21 1020.06 1019.90 1019.75 1019.59 1019.53 1019.36
1011.72 1013.05 1014.93 1015.61 1015.64 1014.49 1013.23 1012.37 1011.88 1012.03 1012.48 1013.18 1014.25 1015.93 1017.34 1017.61 1018.29 1019.22 1019.73 1019.84 1020.04 1020.33 1020.45 1020.42 1020.54 1020.61 1020.62 1020.77 1020.88 1020.94 1020.96 1021.01 1021.02 1021.06 1021.07 1021.08 1021.03 1021.11 1021.03 1020.92 1020.81 1020.75 1020.68 1020.45 1020.41 1020.16 1019.89 1019.64 1019.52
1012.65 1014.02 1015.83 1016.09 1014.94 1013.20 1012.35 1011.87 1011.76 1012.12 1012.96 1013.97 1014.30 1016.95 1017.90 1018.48 1018.54 1019.15 1019.41 1019.47 1019.94 1020.39 1020.56 1020.53 1020.58 1020.73 1020.78 1020.92 1021.05 1021.07 1021.14 1021.27 1021.26 1021.25 1021.29 1021.19 1021.12 1021.23 1021.18 1021.12 1021.07 1021.06 1020.80 1020.72 1020.64 1020.55 1020.26 1019.96 1019.70
1013.85 1014.90 1015.59 1015.42 1014.09 1012.59 1011.99 1011.51 1011.53 1012.39 1013.41 1014.45 1015.40 1016.78 1018.36 1018.78 1018.82 1019.11 1019.08 1019.35 1019.63 1020.06 1020.38 1020.46 1020.54 1020.68 1020.90 1021.05 1021.19 1021.13 1021.15 1021.31 1021.42 1021.48 1021.38 1021.30 1021.29 1021.33 1021.23 1021.27 1021.16 1021.08 1020.94 1020.77 1020.62 1020.55 1020.44 1020.25 1019.88
1013.07 1014.65 1015.17 1014.48 1013.02 1012.53 1012.09 1011.54 1011.77 1012.21 1013.05 1013.84 1014.71 1016.70 1018.44 1018.78 1018.53 1018.61 1018.78 1018.84 1019.18 1019.71 1020.23 1020.49 1020.69 1020.71 1020.89 1020.99 1021.16 1021.13 1021.20 1021.40 1021.59 1021.55 1021.35 1021.38 1021.31 1021.21 1021.18 1021.27 1021.04 1020.98 1020.79 1020.55 1020.48 1020.37 1020.34 1020.09 1019.91
1012.63 1013.91 1014.25 1013.45 1012.22 1012.25 1011.97 1011.80 1011.83 1012.29 1013.68 1013.93 1014.46 1016.26 1017.82 1017.85 1018.19 1018.54 1018.79 1019.44 1019.80 1020.15 1020.45 1020.84 1021.03 1021.06 1020.98 1020.93 1021.00 1020.97 1021.08 1021.29 1021.45 1021.44 1021.37 1021.25 1021.03 1020.97 1021.03 1021.08 1020.84 1020.69 1020.50 1020.43 1020.31 1020.15 1019.94 1019.87 1019.70
1011.95 1013.19 1013.38 1012.59 1011.28 1011.24 1011.36 1011.98 1012.71 1013.67 1014.00 1014.37 1014.51 1015.52 1016.53 1017.20 1017.78 1019.00 1019.28 1019.58 1019.84 1020.09 1020.25 1020.36 1020.47 1020.69 1020.99 1020.87 1020.95 1020.92 1020.99 1021.10 1021.20 1021.27 1021.27 1021.26 1021.03 1020.99 1020.76 1020.51 1020.49 1020.48 1020.30 1020.24 1020.03 1019.81 1019.52 1019.62 1019.39
1011.37 1012.48 1011.70 1010.12 1010.06 1010.40 1011.00 1011.60 1012.47 1013.87 1014.76 1015.70 1016.10 1016.73 1017.06 1017.63 1018.25 1019.03 1019.44 1020.05 1020.04 1020.18 1020.32 1020.28 1020.31 1020.44 1020.66 1020.51 1020.61 1020.88 1021.02 1021.11 1021.20 1021.22 1021.17 1021.26 1021.04 1020.84 1020.53 1020.49 1020.17 1020.14 1019.98 1019.72 1019.49 1019.41 1019.10 1019.21 1019.26
1011.90 1012.48 1011.59 1009.68 1009.39 1009.65 1010.76 1011.65 1012.46 1013.99 1015.00 1015.65 1016.40 1017.09 1017.90 1018.48 1019.07 1019.56 1020.01 1020.21 1020.35 1020.34 1020.25 1020.44 1020.74 1020.94 1021.00 1021.08 1020.83 1020.92 1021.21 1021.18 1021.13 1021.15 1021.15 1021.09 1021.17 1021.13 1020.83 1020.79 1020.49 1020.24 1019.81 1019.80 1019.63 1019.45 1019.36 1019.27 1019.10
1012.40 1012.47 1011.30 1009.43 1009.48 1009.71 1010.53 1011.84 1013.35 1014.08 1014.59 1015.83 1016.74 1017.32 1018.26 1019.04 1019.58 1019.93 1020.36 1020.57 1020.47 1020.46 1020.64 1020.79 1020.97 1021.47 1021.48 1021.35 1021.17 1021.04 1021.10 1021.18 1021.44 1021.48 1021.22 1021.24 1021.37 1021.38 1021.22 1021.16 1020.66 1020.39 1020.16 1020.07 1019.92 1019.64 1019.44 1019.04 1018.92
1013.05 1011.49 1010.25 1009.66 1009.86 1010.24 1010.71 1012.13 1013.56 1015.19 1015.67 1016.57 1017.36 1018.18 1019.15 1019.68 1020.20 1020.51 1020.55 1020.50 1020.69 1020.79 1020.91 1021.18 1021.04 1021.49 1021.53 1021.49 1021.42 1021.33 1021.17 1021.25 1021.11 1021.30 1021.17 1021.21 1021.47 1021.52 1021.37 1021.25 1020.94 1020.76 1020.42 1020.13 1020.00 1019.79 1019.68 1019.29 1018.91
1012.46 1010.92 1010.95 1010.96 1010.67 1010.67 1011.81 1013.20 1013.73 1016.08 1016.78 1017.72 1018.46 1019.14 1019.85 1020.35 1020.65 1020.82 1020.95 1021.22 1021.24 1021.10 1021.06 1021.21 1021.31 1021.28 1021.36 1021.61 1021.48 1021.46 1021.40 1021.15 1021.16 1021.17 1020.96 1021.02 1021.23 1021.51 1021.35 1021.34 1021.01 1020.77 1020.50 1020.19 1020.05 1019.89 1019.57 1019.50 1019.14
1013.09 1012.12 1012.33 1012.04 1012.53 1012.19 1012.12 1013.73 1014.93 1016.55 1017.43 1018.43 1019.31 1020.03 1020.57 1020.82 1020.91 1020.96 1021.24 1021.44 1021.42 1021.20 1021.08 1021.20 1021.20 1021.11 1021.34 1021.53 1021.57 1021.54 1021.35 1021.02 1020.96 1020.94 1020.81 1020.83 1021.00 1021.14 1021.20 1021.19 1021.22 1020.84 1020.41 1020.12 1019.91 1019.86 1019.52 1019.32 1019.02
1013.72 1014.38 1015.00 1013.68 1012.87 1012.42 1013.09 1014.22 1015.13 1016.18 1016.97 1018.31 1019.06 1019.59 1020.15 1020.55 1020.96 1021.09 1021.07 1021.35 1021.34 1021.26 1021.21 1021.02 1020.63 1020.94 1021.13 1021.24 1021.29 1021.26 1021.17 1020.86 1020.58 1020.70 1020.53 1020.79 1020.84 1020.89 1021.02 1020.86 1020.88 1020.59 1020.30 1020.11 1019.78 1019.90 1019.57 1019.50 1019.26
1013.53 1014.52 1014.89 1015.23 1012.96 1013.37 1013.62 1014.40 1014.89 1015.81 1016.36 1017.63 1018.53 1019.34 1019.98 1020.46 1020.56 1020.44 1020.44 1020.67 1020.59 1020.59 1020.83 1020.87 1020.75 1020.67 1020.91 1020.69 1020.70 1020.89 1020.85 1020.84 1020.50 1020.23 1020.31 1020.35 1020.31 1020.41 1020.64 1020.74 1020.55 1020.29 1020.14 1020.09 1020.01 1019.83 1019.83 1019.85 1019.55
1011.96 1013.77 1014.57 1013.82 1011.80 1012.32 1012.29 1013.60 1014.90 1015.54 1016.32 1016.92 1017.72 1018.32 1018.94 1019.52 1019.77 1019.81 1019.87 1020.13 1020.28 1020.07 1020.11 1020.23 1020.34 1020.49 1020.44 1020.59 1020.57 1020.71 1020.59 1020.24 1020.17 1020.03 1019.80 1019.96 1020.12 1020.13 1020.20 1020.26 1020.38 1020.21 1019.85 1019.93 1019.84 1019.79 1019.73 1019.82 1019.77
1009.71 1011.29 1012.37 1012.08 1010.89 1011.09 1012.08 1014.13 1015.59 1016.00 1015.98 1016.34 1017.30 1017.72 1018.10 1018.67 1018.44 1018.98 1019.08 1019.58 1019.85 1020.07 1020.18 1020.21 1020.26 1020.46 1021.03 1021.07 1021.21 1021.53 1020.99 1020.01 1020.03 1019.85 1019.70 1019.80 1019.86 1019.77 1019.83 1020.08 1019.69 1019.89 1020.08 1020.06 1019.91 1019.80 1019.62 1019.67 1019.51
1008.37 1008.81 1009.17 1009.76 1009.82 1010.65 1012.34 1014.88 1016.24 1016.47 1016.43 1016.53 1016.48 1017.06 1017.33 1017.71 1017.92 1018.52 1018.85 1019.02 1019.32 1019.49 1019.30 1020.17 1020.30 1020.44 1020.29 1020.70 1020.87 1021.22 1020.16 1019.71 1019.62 1019.79 1019.65 1019.62 1019.46 1019.61 1019.54 1019.55 1019.76 1019.52 1019.74 1019.63 1019.85 1019.85 1019.92 1019.54 1019.53
1007.20 1007.70 1008.13 1008.77 1008.95 1009.88 1012.24 1015.91 1017.72 1017.16 1016.40 1016.08 1015.66 1015.89 1016.70 1016.93 1017.26 1017.91 1018.33 1018.75 1018.56 1018.74 1019.17 1019.67 1020.07 1019.90 1020.24 1020.47 1020.42 1019.80 1019.85 1019.63 1019.66 1019.36 1019.49 1019.45 1019.35 1019.16 1019.18 1019.06 1019.40 1019.38 1019.30 1019.50 1019.71 1019.74 1019.70 1019.63 1019.45
1006.89 1007.10 1007.59 1008.07 1008.90 1009.96 1010.79 1015.30 1016.46 1017.85 1017.01 1016.00 1015.87 1015.82 1016.60 1016.90 1017.11 1017.94 1018.21 1018.49 1018.44 1018.47 1018.77 1019.24 1019.39 1019.67 1020.15 1020.01 1019.82 1019.85 1020.43 1020.07 1019.54 1019.53 1019.37 1019.46 1019.19 1018.96 1018.65 1018.80 1019.26 1019.19 1019.02 1019.23 1019.47 1019.26 1019.24 1019.35 1019.49
1007.16 1007.88 1008.36 1008.31 1008.86 1009.79 1012.09 1014.33 1017.22 1017.69 1017.43 1016.66 1016.31 1015.94 1016.19 1017.03 1017.60 1017.97 1018.04 1018.01 1018.23 1018.46 1018.54 1018.89 1019.27 1019.79 1019.60 1019.48 1019.85 1020.18 1020.18 1019.75 1019.28 1019.28 1019.14 1018.94 1018.65 1018.44 1018.49 1018.58 1018.64 1018.82 1018.67 1018.90 1019.16 1018.87 1018.80 1019.00 1019.14
1006.46 1008.11 1009.50 1009.16 1009.19 1010.51 1011.96 1013.83 1017.56 1017.46 1017.39 1016.62 1016.54 1016.24 1016.67 1017.26 1017.37 1017.70 1017.62 1017.88 1018.21 1018.26 1018.71 1018.84 1019.28 1019.42 1019.39 1019.71 1019.52 1019.74 1019.89 1019.61 1019.90 1019.60 1019.41 1018.92 1018.66 1018.52 1018.35 1018.49 1018.34 1018.15 1018.34 1018.61 1018.47 1018.35 1018.45 1018.64 1018.56
1006.87 1008.81 1009.80 1010.16 1010.85 1012.14 1013.10 1014.65 1016.53 1016.66 1016.75 1016.64 1016.76 1016.76 1016.93 1017.16 1017.73 1018.05 1017.99 1018.03 1018.36 1018.43 1018.45 1018.85 1019.41 1019.23 1019.46 1019.67 1019.63 1019.64 1019.51 1019.39 1019.88 1019.72 1019.33 1018.95 1018.83 1018.61 1018.26 1018.16 1018.21 1018.21 1017.76 1017.79 1017.85 1017.91 1018.03 1018.20 1018.16
1007.28 1008.37 1009.86 1010.97 1011.92 1012.94 1013.22 1015.46 1016.69 1016.69 1016.35 1016.20 1015.99 1016.65 1017.03 1017.31 1017.54 1017.67 1017.61 1017.70 1017.84 1017.94 1018.28 1018.54 1018.77 1018.78 1018.95 1019.09 1019.28 1019.38 1019.17 1019.00 1018.70 1018.97 1018.85 1018.60 1018.50 1018.12 1017.80 1017.74 1017.75 1017.64 1017.26 1017.19 1017.25 1017.49 1017.50 1017.75 1017.65
1007.02 1008.20 1009.03 1010.44 1011.26 1012.61 1014.78 1016.44 1016.74 1016.39 1016.30 1015.94 1016.58 1016.75 1017.12 1017.23 1017.26 1017.37 1017.43 1017.80 1017.97 1018.05 1018.19 1018.22 1018.39 1018.49 1018.51 1018.80 1018.92 1019.01 1018.88 1018.81 1018.63 1018.48 1018.43 1018.21 1017.97 1017.58 1017.44 1017.24 1017.30 1017.13 1016.86 1016.74 1017.06 1017.18 1017.17 1017.47 1017.27
1006.88 1007.75 1008.96 1010.65 1012.46 1013.74 1014.48 1015.67 1016.13 1016.32 1016.21 1016.06 1016.48 1016.89 1017.10 1017.18 1017.43 1017.69 1017.66 1017.67 1017.77 1017.69 1017.86 1018.18 1018.24 1018.36 1018.65 1018.70 1018.64 1018.66 1018.54 1018.41 1018.15 1018.03 1017.91 1017.83 1017.45 1017.14 1017.17 1017.06 1016.97 1016.90 1016.76 1016.60 1016.74 1016.81 1016.88 1017.12 1016.65
1007.25 1008.18 1009.34 1010.97 1012.34 1013.87 1014.93 1015.66 1015.31 1015.86 1016.35 1016.64 1016.82 1016.91 1016.99 1017.31 1017.35 1017.51 1017.60 1017.70 1017.76 1017.76 1017.95 1018.13 1018.19 1018.39 1018.65 1018.54 1018.48 1018.40 1018.24 1018.02 1018.04 1017.78 1017.29 1017.03 1016.86 1016.80 1016.93 1016.77 1016.57 1016.54 1016.48 1016.30 1016.31 1016.45 1016.58 1016.52 1016.31
1007.64 1008.49 1009.73 1011.61 1012.85 1013.77 1014.36 1016.03 1015.60 1016.00 1016.43 1016.83 1016.81 1016.92 1016.87 1017.01 1017.09 1017.25 1017.39 1017.56 1017.62 1017.53 1017.61 1017.81 1017.98 1018.12 1018.20 1018.12 1018.19 1018.12 1017.97 1017.55 1017.53 1017.19 1016.83 1016.50 1016.35 1016.28 1016.33 1016.28 1016.33 1016.12 1016.08 1016.00 1015.94 1016.23 1016.15 1016.21 1016.07
Wind_Speed
12 6 5 7 6 3 3 6 10 10 14 17 17 18 15 12 6 6 5 10 10 6 4 9 15 15 14 12 11 11 11 11 10 10 10 10 11 11 11 11 10 10 11 10 9 9 8 8 8
2 7 7 3 5 1 1 8 10 19 20 21 21 18 14 11 10 12 6 8 9 7 4 6 14 14 13 11 10 10 11 10 10 10 9 10 10 10 10 10 9 9 8 8 8 7 7 7 6
8 7 5 3 4 2 2 10 6 13 16 14 7 12 6 6 9 4 9 11 9 6 4 8 14 13 12 10 9 9 8 8 8 8 8 9 9 9 10 9 10 9 8 7 6 7 6 5 5
4 4 5 2 5 6 6 4 6 8 17 13 17 12 6 3 6 10 14 13 11 9 7 11 12 11 10 9 9 7 7 6 6 6 6 7 7 8 8 8 9 9 9 9 9 9 7 7 6
5 4 7 4 4 3 8 7 7 9 11 13 10 10 8 7 16 16 15 14 13 9 6 6 11 10 9 9 7 6 5 4 3 4 4 4 4 3 5 6 7 8 8 8 8 9 9 9 9
5 2 5 6 11 11 4 3 19 17 19 19 17 10 4 11 13 15 15 14 13 12 8 7 12 12 10 8 7 6 5 4 3 2 2 2 3 2 2 4 5 4 4 5 6 7 8 9 10
8 3 3 6 17 7 4 5 4 16 11 12 16 8 6 10 11 12 12 15 14 12 9 6 6 8 10 9 7 8 6 3 1 3 4 5 6 5 3 2 2 2 5 6 8 8 10 10 10
5 4 9 6 10 9 9 3 15 12 14 12 16 8 7 8 16 13 10 9 9 8 6 4 3 3 6 6 9 10 8 6 5 4 7 7 9 10 8 8 7 3 5 5 7 9 10 10 11
7 2 4 6 11 7 12 10 9 13 15 12 5 12 15 9 15 10 9 8 6 8 8 7 6 3 6 7 7 8 10 9 8 5 8 7 2 4 6 5 8 5 10 9 11 11 10 9 10
5 6 12 6 11 9 11 12 10 7 12 13 16 14 11 9 13 10 8 7 6 5 6 6 5 6 7 0 3 5 5 4 4 4 2 3 5 6 5 9 13 6 12 13 9 12 13 9 4
6 5 10 8 8 15 9 9 7 14 7 16 21 16 13 13 11 9 8 7 5 3 5 6 6 6 7 5 4 3 2 1 2 4 2 4 4 4 4 4 3 4 8 4 6 6 4 2 3
8 22 12 7 9 8 10 11 13 11 7 18 14 11 14 12 7 8 8 6 4 3 4 5 8 6 6 4 4 3 3 3 2 1 4 3 3 4 5 4 5 4 3 5 5 4 5 6 7
6 9 8 3 10 9 16 15 14 13 14 15 14 11 10 8 7 6 6 5 4 2 1 4 7 4 2 3 3 4 1 1 3 4 4 3 3 2 3 4 4 4 2 3 4 5 5 6 6
8 9 10 13 6 5 13 15 8 12 16 14 10 11 9 8 7 5 5 3 3 3 5 1 4 6 1 1 3 4 2 2 2 2 4 5 3 0 3 4 5 4 2 3 3 4 6 5 5
8 2 11 10 10 7 13 8 12 16 15 16 11 6 6 6 6 7 6 6 6 5 5 4 5 7 4 2 3 4 3 2 3 2 5 6 5 3 3 4 4 4 3 4 5 5 1 4 5
4 7 4 8 12 8 5 7 16 17 17 14 13 11 9 9 8 7 6 6 7 6 6 7 7 7 6 5 4 4 4 4 4 3 2 5 5 4 4 3 3 3 4 4 3 3 4 4 4
3 4 5 10 12 6 2 7 14 14 16 15 13 11 10 9 8 9 10 11 10 9 8 8 7 6 5 4 3 4 5 5 5 4 3 6 3 3 2 3 5 5 4 3 4 1 1 3 5
6 7 5 15 12 18 12 7 13 16 11 12 11 13 12 12 15 14 12 11 10 10 9 9 7 5 3 2 4 3 3 3 2 2 3 5 3 3 2 4 4 4 2 3 2 2 1 1 4
8 21 13 21 16 5 13 15 11 7 8 9 8 9 12 13 17 14 14 12 11 8 8 7 7 1 2 2 3 5 5 2 1 2 4 4 2 3 4 4 4 2 2 4 5 2 2 3 3
9 3 4 6 8 5 14 15 9 6 4 9 12 8 10 13 13 13 13 12 9 7 8 1 4 3 5 3 4 4 7 4 3 3 3 5 5 5 4 3 4 4 2 5 4 2 2 2 1
3 1 4 8 5 5 20 8 3 4 2 15 10 12 10 10 8 11 10 8 8 7 6 8 7 5 4 4 4 5 6 3 2 3 3 4 6 6 4 4 3 3 2 3 3 2 3 2 3
4 6 9 12 6 6 7 5 6 7 2 4 3 6 4 6 3 7 6 6 7 8 4 6 9 5 4 7 8 6 9 4 3 3 2 2 3 5 4 4 4 3 2 4 3 2 2 1 4
4 20 18 12 11 4 2 8 3 6 4 2 5 6 6 6 8 7 7 8 3 5 4 5 6 5 6 8 3 4 7 5 2 2 3 2 4 6 6 5 5 4 2 3 5 4 3 2 3
11 8 15 22 4 4 4 7 3 3 2 6 3 8 10 7 6 8 6 5 6 6 4 6 6 5 5 6 8 8 11 7 5 5 4 4 4 5 6 6 5 5 4 5 4 4 4 4 4
6 2 5 7 6 3 6 11 4 8 8 7 9 8 7 7 8 7 6 6 6 6 5 7 6 5 6 7 8 7 5 4 3 11 5 6 4 3 5 5 5 4 6 6 4 4 4 5 4
7 3 2 4 3 5 6 6 4 6 10 11 9 9 7 8 6 5 4 3 5 5 7 6 5 4 6 9 5 2 5 4 6 7 5 5 3 4 4 4 6 6 4 4 4 2 3 6 5
5 2 5 2 6 4 6 4 3 6 8 7 10 8 7 5 6 5 3 6 7 5 5 6 5 3 5 6 4 5 6 6 7 6 4 5 5 3 5 5 5 5 4 4 5 3 4 5 4
8 4 3 5 4 4 4 7 6 5 6 8 7 7 6 4 7 6 5 4 3 3 3 6 5 3 4 5 2 0 1 5 6 6 7 7 6 4 5 6 6 6 6 3 4 3 4 5 5
6 3 4 3 2 1 2 3 6 7 5 10 7 6 5 6 5 6 4 5 5 6 7 5 5 7 6 2 2 1 3 3 6 6 7 7 6 6 6 6 6 6 6 6 5 4 6 6 5
1 2 5 5 6 2 4 2 8 8 10 7 7 3 1 2 5 4 3 3 4 4 4 4 5 5 2 3 3 4 4 4 5 6 7 7 8 6 6 6 5 6 5 6 5 4 3 3 4
Wind_Direction
109 161 128 36 39 47 352 258 88 99 80 81 82 85 87 37 35 114 160 109 110 108 112 106 99 93 87 87 82 79 76 81 76 71 63 62 62 63 62 59 60 63 62 55 56 58 51 42 35
125 151 46 105 105 352 210 248 81 82 111 105 101 102 74 77 66 111 108 113 109 111 109 102 100 93 90 85 82 77 78 77 75 76 72 69 69 64 61 57 53 51 50 57 53 48 41 35 29
96 67 96 109 99 137 59 54 63 115 124 112 94 64 62 87 78 88 123 127 119 121 122 104 105 106 103 93 88 86 80 77 74 72 72 71 68 70 63 56 49 43 42 31 35 25 22 16 9
113 21 52 64 166 221 102 62 55 64 86 88 128 75 81 9 104 137 140 139 133 117 113 118 118 115 109 99 85 81 72 68 71 69 69 65 66 60 55 55 47 40 31 26 14 5 357 347 338
41 44 84 315 251 203 111 145 135 114 98 97 83 96 77 58 120 144 150 144 126 123 137 132 133 127 119 113 109 97 73 61 44 52 35 49 59 65 66 57 46 32 22 10 360 355 351 345 333
65 37 106 210 233 108 102 78 84 106 107 108 90 100 89 142 147 165 159 138 139 144 151 164 152 146 139 131 127 119 99 77 63 40 348 322 307 336 72 78 64 26 344 330 326 326 323 322 324
115 99 196 271 120 111 140 115 104 96 111 110 143 104 146 180 166 150 150 148 151 155 154 151 163 153 153 151 155 138 133 135 179 248 257 269 281 282 259 157 177 323 314 300 299 293 289 289 293
95 87 317 224 101 106 168 142 86 90 54 130 141 145 169 199 161 171 149 99 92 92 123 151 169 172 184 169 177 156 153 166 195 257 284 295 278 283 251 215 245 334 307 304 283 277 273 280 285
227 162 289 250 121 149 139 92 58 72 80 50 35 124 147 156 132 118 109 89 100 106 102 72 53 83 203 195 200 185 170 184 200 228 283 339 14 324 236 310 260 291 289 289 293 286 286 292 288
130 158 216 162 135 154 127 140 132 88 98 89 94 115 140 106 100 101 99 90 87 81 108 110 78 45 26 84 57 201 183 198 192 147 351 2 6 334 360 2 0 293 298 291 288 276 284 290 284
9 349 260 111 122 127 132 76 106 123 148 141 142 149 114 102 105 108 107 103 91 88 73 113 80 54 39 10 16 33 123 212 96 173 139 49 15 358 355 1 332 332 337 350 5 357 2 317 325
115 216 255 61 130 122 129 93 76 70 116 139 139 135 116 116 129 125 123 108 107 63 85 93 83 55 23 18 6 12 47 55 143 213 97 67 25 8 351 341 326 321 327 21 2 346 337 346 322
319 350 44 123 96 96 100 104 101 89 109 129 134 112 106 107 91 95 130 152 151 151 208 66 104 71 29 37 341 342 15 20 288 104 132 99 68 36 338 324 321 332 344 19 348 329 311 309 304
265 21 11 14 54 111 109 125 102 115 107 114 115 123 127 130 153 165 185 192 181 191 244 203 179 147 126 329 321 319 264 306 291 215 163 130 108 215 320 314 321 308 331 334 309 286 284 304 321
357 172 5 344 350 309 139 149 109 130 127 132 137 130 133 165 185 194 183 194 204 221 253 282 210 161 171 159 312 310 269 331 302 306 184 173 152 206 262 291 325 286 301 328 322 323 313 5 341
95 50 20 330 310 296 263 138 141 144 138 148 162 172 173 186 211 226 191 198 215 225 244 264 276 172 180 183 236 265 244 236 242 231 230 163 167 199 243 241 294 283 319 314 337 324 10 349 346
213 106 114 340 270 239 318 126 154 154 154 164 173 180 185 198 203 220 196 206 202 204 224 249 266 186 181 211 265 278 286 249 258 226 141 155 180 205 201 238 273 296 279 319 322 318 14 330 328
149 92 244 204 236 198 240 175 162 153 161 166 174 174 186 201 217 221 207 219 217 220 210 218 231 198 147 267 288 296 278 303 291 226 178 164 186 260 287 268 266 299 309 310 301 277 290 280 280
26 158 195 226 246 217 181 126 152 117 150 179 182 192 194 210 218 213 209 213 216 220 227 227 207 149 353 327 343 355 279 284 296 163 158 173 230 278 288 250 256 234 333 283 286 282 355 321 321
161 193 240 226 242 151 115 132 89 123 234 204 196 207 212 223 215 210 215 207 208 197 202 115 35 192 217 216 98 242 270 253 242 228 218 196 202 242 264 264 250 234 270 312 322 11 307 274 311
242 215 274 220 215 162 114 98 75 240 227 264 187 180 210 218 173 192 187 188 209 212 212 180 205 226 207 126 230 259 291 282 324 239 260 247 222 220 253 252 257 298 289 274 249 264 265 259 290
356 357 343 321 309 243 162 137 111 289 245 55 111 160 186 126 114 112 130 203 203 222 236 160 194 205 190 185 227 217 264 255 232 227 216 259 285 262 270 249 262 258 285 300 270 250 234 203 273
317 9 336 294 294 252 53 92 135 191 208 195 94 145 147 105 131 139 164 201 175 118 166 148 157 204 203 208 257 251 267 245 233 288 270 291 274 278 262 253 239 270 271 265 256 280 261 231 228
340 37 288 286 299 12 157 109 191 171 180 153 58 78 99 146 112 161 192 157 182 170 124 170 191 236 201 215 229 235 260 284 325 308 295 304 294 287 254 248 237 244 253 263 255 258 258 263 255
334 174 300 347 359 272 132 65 204 184 141 140 209 125 139 86 86 72 50 92 95 88 143 166 183 215 218 215 243 243 234 230 302 279 271 260 266 257 245 228 243 253 242 230 240 257 275 267 249
277 123 177 307 312 258 102 120 200 173 178 216 147 122 102 90 94 110 121 119 96 42 36 71 104 54 186 220 256 149 169 215 222 242 265 251 223 224 241 243 241 249 265 247 220 240 261 258 251
286 321 241 244 267 341 109 44 341 227 219 185 115 104 111 132 169 171 29 54 79 89 112 115 94 48 15 129 181 199 229 233 240 260 267 256 259 248 264 273 252 272 275 244 215 243 287 285 267
211 229 357 348 3 320 103 165 190 186 222 122 111 101 73 18 66 66 75 78 93 64 66 63 63 30 81 121 168 148 339 249 240 251 252 245 247 258 276 271 267 262 271 259 226 246 280 272 281
13 356 30 114 126 232 22 318 190 180 115 90 71 52 48 1 80 55 45 41 56 50 62 69 43 54 66 32 4 314 291 316 294 262 254 241 244 244 250 261 264 269 265 255 241 224 257 278 294
344 96 96 103 309 259 179 276 87 105 101 138 151 182 41 309 100 73 57 60 85 97 80 61 71 60 63 23 6 320 296 307 295 283 270 242 228 231 245 246 261 265 272 260 240 238 227 297 291